Location: Newark
(48.6461°N, 4.3644°W)
Time: 11:08:51
(UTC+00:00)

S-56A Canister/Altair - Pass Details

Date: 18 January 2020
Orbit: 633 x 2500 km, 38.9° (Epoch: 25 February)

Event Time Altitude Azimuth Distance (km) Brightness Sun altitude
Rises 03:03:29 0° 259° (W) 2,976 - -48.2°
Reaches altitude 10° 03:06:08 10° 242° (WSW) 2,162 - -47.8°
Maximum altitude 03:09:44 20° 194° (SSW) 1,752 - -47.3°
Drops below altitude 10° 03:14:05 10° 149° (SSE) 2,676 - -46.6°
Exits shadow 03:16:59 - 136° (SE) 3,645 11.2 -46.2°
Sets 03:17:51 0° 134° (SE) 3,944 11.4 -46.1°
